Regional Weather Roundup
Issued by NWS Northern Indiana

Home | Current Version | Previous Version | Text Only | Print | Product List | Glossary Off
Versions: 1 2 3 4 5 6 7 8 9 10 11 12 13 14 15 16 17 18 19 20 21 22 23 24 25 26 27 28 29 30 31 32 33 34 35 36 37 38 39 40 41 42 43 44 45 46 47 48 49 50

739
ASUS43 KIWX 140610
RWRIWX

KIWX WEATHER ROUNDUP
NATIONAL WEATHER SERVICE NORTHERN INDIANA
100 AM EST SUN FEB 14 2016

NOTE: "FAIR" INDICATES FEW OR NO CLOUDS BELOW 12,000 FEET WITH NO
SIGNIFICANT WEATHER AND/OR OBSTRUCTIONS TO VISIBILITY.

* THESE STATIONS ARE NOT UNDER NWS QUALITY CONTROL. THEY ALSO MAY NOT
  REPORT WEATHER SUCH AS PRECIPITATION OR FOG.

INZ001>027-140700-
NORTHERN INDIANA

CITY           SKY/WX    TMP DP  RH WIND       PRES   REMARKS
GARY*          CLOUDY    13   0  55 SE5       30.48F WCI   5
VALPARAISO     CLOUDY     8   1  73 CALM      30.47F
6HR MIN TEMP:   6; 6HR MAX TEMP:  10;

MICHIGAN CITY* MOCLDY     3   0  85 CALM      30.48F
LAPORTE*       CLOUDY     4   0  84 CALM      30.48S
6HR MIN TEMP:  -1; 6HR MAX TEMP:   8;

KNOX*          PTCLDY     5   0  78 SE3       30.48S
SOUTH BEND     CLOUDY     7   2  80 SW3       30.48S HAZE
6HR MIN TEMP:   5; 6HR MAX TEMP:  11; 6HR PCP: TRACE;

GOSHEN         CLOUDY     9   2  73 SW5       30.47S WCI   1
6HR MIN TEMP:   7; 6HR MAX TEMP:  12; 6HR PCP: TRACE;

MONTICELLO*    CLOUDY    11  -2  56 E5        30.48S WCI   3
6HR MIN TEMP:  10; 6HR MAX TEMP:  14;

LOGANSPORT*    CLOUDY    10   0  61 E3        30.48F
ROCHESTER*     CLOUDY     3  -6  66 CALM      30.48S
WARSAW*        CLOUDY     5   1  85 CALM      30.47F
ANGOLA*        CLOUDY    10   7  85 CALM      30.44S
FORT WAYNE     CLOUDY     6   0  76 CALM      30.49S
6HR MIN TEMP:   5; 6HR MAX TEMP:  11;

HUNTINGTON*    CLOUDY     4  -2  76 CALM      30.48S
6HR MIN TEMP:   3; 6HR MAX TEMP:  10;

PERU/GRISSOM   CLOUDY     8   0  68 E2        30.46S
6HR MIN TEMP:   7; 6HR MAX TEMP:  11;

MARION*        CLOUDY     4  -6  62 CALM      30.48S
6HR MIN TEMP:  -1; 6HR MAX TEMP:  59;


$$
INZ028>050-140700-
CENTRAL INDIANA

CITY           SKY/WX    TMP DP  RH WIND       PRES   REMARKS
LAFAYETTE      CLOUDY    12   4  70 E7        30.48S WCI   1
6HR MIN TEMP:   9; 6HR MAX TEMP:  15;

KOKOMO*        CLOUDY     7   0  72 E3        30.47S
6HR MIN TEMP:   7; 6HR MAX TEMP:  12;

MUNCIE*        CLOUDY     7  -2  66 E3        30.47S
6HR MIN TEMP:   4; 6HR MAX TEMP:  13;

INDIANAPOLIS   CLOUDY    15   0  51 E9        30.44F WCI   3
6HR MIN TEMP:  13; 6HR MAX TEMP:  16;


$$
MIZ043>046-050>051-056>058-064>065-071>073-077>080-140700-
SOUTHWEST LOWER MICHIGAN

CITY           SKY/WX    TMP DP  RH WIND       PRES   REMARKS
BATTLE CREEK   CLOUDY     9  -2  61 CALM      30.46R
6HR MIN TEMP:   9; 6HR MAX TEMP:  13; 6HR PCP: TRACE;

BENTON HARBOR  CLOUDY    14   4  64 S7        30.47S WCI   4
6HR MIN TEMP:  14; 6HR MAX TEMP:  17;

COLDWATER*     CLOUDY    11   7  81 CALM      30.45S
6HR MIN TEMP:  10; 6HR MAX TEMP:  13;

HILLSDALE*     CLOUDY     9   0  65 CALM      30.42S
6HR MIN TEMP:   9; 6HR MAX TEMP:  12;

HOLLAND        CLOUDY    12   4  70 SE5       30.48S WCI   4
6HR MIN TEMP:  12; 6HR MAX TEMP:  14; 6HR PCP: TRACE;

GRAND RAPIDS   CLEAR      7   0  73 CALM      30.46F
6HR MIN TEMP:   7; 6HR MAX TEMP:  13; 6HR PCP: TRACE;

KALAMAZOO      CLOUDY    12   3  67 CALM      30.46S
6HR MIN TEMP:  12; 6HR MAX TEMP:  13; 6HR PCP: TRACE;

STURGIS*       FLURRIES  10   7  85 CALM      30.44F
6HR MIN TEMP:   5; 6HR MAX TEMP:  11;

THREE RIVERS*  CLOUDY    12   8  82 CALM      30.47S
6HR MIN TEMP:   8; 6HR MAX TEMP:  14;


$$
OHZ001>008-015>018-024>025-140700-
NORTHWEST OHIO

CITY           SKY/WX    TMP DP  RH WIND       PRES   REMARKS
DEFIANCE       CLOUDY    14   3  61 NW9       30.49R WCI   2
6HR MIN TEMP:  12; 6HR MAX TEMP:  15;

FINDLAY        PTCLDY    10   3  73 W5        30.46R WCI   2
6HR MIN TEMP:  10; 6HR MAX TEMP:  15;

TOLEDO EXPRESS CLOUDY    12   3  67 NW5       30.47S WCI   4
6HR MIN TEMP:  12; 6HR MAX TEMP:  14; 6HR PCP: TRACE;

TOLEDO METCALF PTCLDY    12   1  61 N5        30.48S WCI   4
6HR MIN TEMP:  12; 6HR MAX TEMP:  16; 6HR PCP: TRACE;

LIMA           CLOUDY     6   1  80 W3        30.46R
6HR MIN TEMP:   5; 6HR MAX TEMP:  13;


$$
AND FOR LAKE MICHIGAN COASTAL AND OPEN LAKE BUOY OBSERVATIONS

STATION/POSITION TEMP    WIND        PRES    VSBY  WAVE
                 AIR SEA DIR/SP/G                  HT/PER
                 (F)     (DEG/KT/KT) (MB)    (MI)  (FT/S)
CALUMET HARBOR    13     170/  6/ 10 1031.4F
MICHIGAN CITY     10     140/  7/  9   N/A
BURNS HARBOR      11     180/  6/  8 1032.5F
SAINT JOSEPH      13     150/  3/  6 1032.5R

$$
&&




USA.gov is the U.S. government's official web portal to all federal, state and local government web resources and services.